Station 45008 (LLNR 10010) - SOUTH HURON - 43NM East of Oscoda, MI Image indicating link to RSS feed of recent meteorological observations for station 45008


Conditions at 45008 as of
(5:30 am EDT)
0930 GMT on 07/13/2024:
     

Click on the graph icon in the table below to see a time series plot of the last five days of that observation.

5-day plot - Wind Direction Wind Direction (WDIR): S ( 190 deg true )
5-day plot - Wind Speed Wind Speed (WSPD): 7.8 kts
5-day plot - Wind Gust Wind Gust (GST): 9.7 kts
5-day plot - Atmospheric Pressure Atmospheric Pressure (PRES):30.16 in
5-day plot - Air Temperature Air Temperature (ATMP): 66.0 °F
5-day plot - Water Temperature Water Temperature (WTMP): 63.7 °F
5-day plot - Wind Speed at 10 Meters Wind Speed at 10 meters (WSPD10M): 7.8 kts
5-day plot - Wind Speed at 20 Meters Wind Speed at 20 meters (WSPD20M): 7.8 kts
5-day plot -  Wind Speed, Wind Gust and Atmospheric Pressure Combined plot of Wind Speed, Gust, and Air Pressure
Supplemental Measurements
Highest 1-minute Wind Speed
Time (EDT)5-day plot - 1-Minute Wind Speed WSPD 5-day plot - 1-Minute Wind Direction WDIR
5:21 am 7.8 kts-
Previous observations
TIME
(EDT)
5-day plot - Wind Direction
WDIR
 
5-day plot - Wind Speed
WSPD
kts
5-day plot - Wind Gust
GST
kts
5-day plot - Wave Height
WVHT
ft
5-day plot - Dominant Wave Period
DPD
sec
5-day plot - Average Wave Period
APD
sec
5-day plot - Mean Wave Direction
MWD
 
5-day plot - Atmospheric Pressure
PRES
in
5-day plot - Pressure Tendency
PTDY
in
5-day plot - Air Temperature
ATMP
°F
5-day plot - Water Temperature
WTMP
°F
5-day plot - Dew Point
DEWP
°F
5-day plot - Salinity
SAL
psu
5-day plot - Visibility
VIS
nmi
5-day plot - Tide (above MLLW)
TIDE
ft
2024-07-13 05:20 am S 7.8 9.7 0.0-3.1-30.15- 66.0 63.7----
2024-07-13 05:10 am S 9.7 9.7 0.0-3.1-30.14- 66.2 63.7----
2024-07-13 05:00 am S 7.8 7.8----30.14-0.01 65.8 63.7----
2024-07-13 04:50 am S 5.8 7.8 0.0-3.2-30.14- 65.7 63.7----
2024-07-13 04:40 am S 5.8 7.8 0.0-3.2-30.15- 65.7 63.7----
2024-07-13 04:30 am S 7.8 7.8----30.15- 65.3 63.9----
2024-07-13 04:20 am S 5.8 5.8 0.0-3.0-30.15- 65.1 64.2----
2024-07-13 04:10 am S 5.8 5.8 0.0-3.0-30.15- 65.1 64.2----
2024-07-13 04:00 am S 3.9 3.9----30.15+0.00 65.3 64.6----
2024-07-13 03:50 amSSW 3.9 3.9 0.0-2.7-30.15- 65.3 64.6----
2024-07-13 03:40 amSSW 3.9 3.9----30.16- 65.1 64.6----
2024-07-13 03:30 amSSW 3.9 3.9----30.16- 65.3 64.8----
2024-07-13 03:20 amSSW 3.9 3.9 0.3-2.7-30.16- 65.3 64.8----
2024-07-13 03:10 amSSW 3.9 5.8 0.3-2.7-30.16- 65.3 64.8----
2024-07-13 03:00 am S 3.9 5.8----30.16+0.00 65.5 64.8----
2024-07-13 02:50 am S 5.8 5.8 0.0-2.7-30.15- 65.1 64.8----
2024-07-13 02:40 am S 3.9 5.8----30.15- 64.9 64.9----
2024-07-13 02:30 am S 3.9 5.8----30.15- 65.1 64.8----
2024-07-13 02:20 am S 5.8 5.8 0.0-2.4-30.15- 65.1 64.8----
2024-07-13 02:10 am S 5.8 5.8----30.15- 65.1 64.8----
2024-07-13 02:00 am S 3.9 5.8----30.16+0.01 65.1 64.9----
2024-07-13 01:50 am S 3.9 5.8 0.0-2.4-30.16- 65.3 65.1----
2024-07-13 01:40 am S 3.9 5.8----30.16- 65.5 65.1----
2024-07-13 01:30 am S 5.8 5.8----30.16- 65.5 65.1----
2024-07-13 01:20 am S 3.9 5.8 0.0-2.3-30.16- 65.5 65.1----
2024-07-13 01:10 am S 3.9 3.9 0.0-2.3-30.16- 65.3 64.4----
2024-07-13 01:00 amSSE 3.9 5.8----30.16+0.02 65.3 64.9----
2024-07-13 12:50 am S 3.9 3.9 0.3-2.2-30.16- 65.7 64.4----
2024-07-13 12:40 am S 3.9 5.8 0.3-2.2-30.16- 65.5 63.7----
2024-07-13 12:30 am S 3.9 5.8----30.16- 65.5 63.7----
2024-07-13 12:20 amSSE 3.9 5.8 0.3-2.3-30.16- 65.5 63.7----
2024-07-13 12:10 amSSE 3.9 5.8 0.3-2.3-30.16- 65.7 63.7----
2024-07-13 12:00 amSSE 3.9 5.8----30.16+0.03 65.8 63.9----
2024-07-12 11:50 pm S 5.8 5.8 0.3-2.3-30.16- 65.8 63.9----
2024-07-12 11:40 pm S 5.8 5.8 0.3-2.3-30.16- 65.8 64.0----
2024-07-12 11:30 pm S 5.8 5.8----30.16- 65.8 64.0----
2024-07-12 11:20 pmSSE 5.8 7.8 0.3-2.3-30.15- 65.8 64.2----
2024-07-12 11:10 pmSSE 5.8 7.8 0.3-2.3-30.15- 65.8 64.2----
2024-07-12 11:00 pm S 5.8 7.8----30.15+0.02 65.8 64.4----
2024-07-12 10:50 pm S 5.8 7.8 0.3-2.4-30.15- 65.8 64.6----
2024-07-12 10:40 pmSSE 5.8 7.8 0.3-2.4-30.15- 65.8 64.4----
2024-07-12 10:30 pmSSE 5.8 7.8----30.14- 65.8 64.6----
2024-07-12 10:20 pm S 7.8 7.8 0.0-2.5-30.14- 65.8 64.2----
2024-07-12 10:10 pm S 5.8 7.8 0.0-2.5-30.14- 66.0 64.9----
2024-07-12 10:00 pmSSE 5.8 7.8----30.14+0.01 66.2 64.8----
2024-07-12 09:50 pm S 5.8 7.8 0.0-2.6-30.14- 66.2 64.9----
2024-07-12 09:40 pmSSE 5.8 7.8----30.13- 66.4 64.4----
2024-07-12 09:30 pmSSE 5.8 7.8----30.13- 66.4 64.6----
2024-07-12 09:20 pmSSE 5.8 7.8 0.0-2.8-30.13- 66.6 64.2----
2024-07-12 09:10 pmSSE 5.8 7.8 0.0-2.8-30.13- 66.6 63.5----
2024-07-12 09:00 pmSSE 5.8 7.8----30.13+0.00 66.7 63.5----
2024-07-12 08:50 pmSSE 5.8 7.8 0.3-2.8-30.13- 66.9 63.5----
2024-07-12 08:40 pmSSE 5.8 7.8----30.13- 67.1 63.5----
2024-07-12 08:30 pmSSE 5.8 7.8----30.13- 67.3 63.5----
2024-07-12 08:20 pmSSE 5.8 7.8 0.0-2.9-30.12- 67.3 63.9----
2024-07-12 08:10 pm SE 5.8 7.8 0.0-2.9-30.13- 67.3 64.0----
2024-07-12 08:00 pm SE 3.9 5.8----30.13+0.00 67.6 64.0----
2024-07-12 07:50 pm SE 3.9 3.9 0.0-2.9-30.13- 67.6 64.4----
2024-07-12 07:40 pm SE 1.9 1.9----30.12- 67.5 64.6----
2024-07-12 07:30 pm- 0.0 0.0----30.12- 68.0 64.8----
2024-07-12 07:20 pm S 1.9 1.9 0.3-2.7-30.12- 68.4 65.3----
2024-07-12 07:10 pm S 1.9 3.9----30.12- 68.4 65.1----
2024-07-12 07:00 pmSSW 1.9 3.9----30.12-0.02 68.7 64.9----
2024-07-12 06:50 pm- 0.0 3.9 0.0-2.9-30.12- 69.8 65.1----
2024-07-12 06:40 pm- 0.0 0.0----30.12- 69.3 64.4----
2024-07-12 06:30 pm- 0.0 0.0----30.12- 68.7 64.4----
2024-07-12 06:20 pm S 1.9 3.9 0.3-3.1-30.12- 67.8 64.8----
2024-07-12 06:10 pmSSW 3.9 5.8 0.3-3.1-30.13- 67.6 64.6----
2024-07-12 06:00 pmSSW 5.8 5.8----30.13-0.03 67.5 64.0----
2024-07-12 05:50 pmSSW 3.9 5.8 0.0-3.0-30.14- 67.3 64.4----
2024-07-12 05:40 pmSSW 3.9 3.9----30.14- 67.5 64.2----
2024-07-12 05:30 pm S 3.9 5.8----30.13- 67.3 64.6----
2024-07-12 05:20 pm S 3.9 5.8 0.3-3.1-30.13- 67.5 64.0----
2024-07-12 05:10 pm S 5.8 7.8 0.3-3.1-30.13- 67.6 64.0----
2024-07-12 05:00 pm SE 5.8 5.8----30.12-0.04 67.8 64.2----
2024-07-12 04:50 pmSSE 3.9 5.8 0.3-3.0-30.13- 68.0 64.4----
2024-07-12 04:40 pmSSE 3.9 3.9----30.14- 68.4 64.6----
2024-07-12 04:30 pm SE 1.9 3.9----30.14- 68.4 64.8----
2024-07-12 04:20 pm SE 1.9 3.9 0.3-2.9-30.14- 67.8 64.8----
2024-07-12 04:10 pm SE 1.9 1.9 0.3-2.9-30.14- 67.5 64.6----
2024-07-12 04:00 pm- 0.0 1.9----30.14-0.03 67.6 64.6----
2024-07-12 03:50 pm S 1.9 1.9 0.3-3.2-30.15- 67.3 64.6----
2024-07-12 03:40 pmSSE 1.9 1.9----30.16- 67.1 64.4----
2024-07-12 03:30 pmSSE 1.9 3.9----30.15- 66.9 64.4----
2024-07-12 03:20 pmSSE 1.9 3.9 0.3-3.0-30.15- 66.9 64.6----
2024-07-12 03:10 pmSSE 1.9 1.9----30.16- 66.6 64.6----
2024-07-12 03:00 pm S 1.9 3.9----30.16+0.00 66.6 64.6----
2024-07-12 02:50 pmSSW 3.9 3.9 0.3-2.9-30.16- 66.4 64.6----
2024-07-12 02:40 pm S 3.9 3.9 0.3-2.9-30.16- 66.2 64.4----
2024-07-12 02:30 pm S 3.9 3.9----30.16- 66.2 64.8----
2024-07-12 02:20 pmSSE 3.9 5.8 0.3-3.6-30.16- 65.8 64.6----
2024-07-12 02:10 pmSSE 5.8 5.8 0.3-3.6-30.16- 65.8 64.2----
2024-07-12 02:00 pmSSE 5.8 5.8----30.16+0.00 65.8 63.9----
2024-07-12 01:50 pmSSE 5.8 5.8 0.3-3.1-30.16- 65.7 63.7----
2024-07-12 01:40 pmSSE 3.9 5.8----30.16- 65.7 63.7----
2024-07-12 01:30 pmSSE 3.9 5.8----30.16- 65.5 63.5----
2024-07-12 01:20 pmSSE 3.9 5.8 0.3-3.1-30.17- 65.5 63.7----
2024-07-12 01:10 pm S 3.9 3.9 0.3-3.1-30.17- 65.5 63.5----
2024-07-12 01:00 pm S 3.9 3.9----30.17+0.01 65.3 63.3----
2024-07-12 12:50 pm S 3.9 3.9 0.0-3.3-30.17- 65.5 63.5----
2024-07-12 12:40 pm S 1.9 3.9 0.0-3.3-30.17- 65.5 63.3----
2024-07-12 12:30 pm SE 3.9 5.8----30.17- 65.5 63.1----
2024-07-12 12:20 pm SE 5.8 5.8 0.0-3.2-30.17- 65.7 63.3----
2024-07-12 12:10 pmSSE 3.9 3.9----30.17- 65.8 63.1----
2024-07-12 12:00 pm SE 3.9 3.9----30.16+0.00 66.0-----
2024-07-12 11:50 amSSE 3.9 3.9 0.3-3.0-30.17- 66.2 63.3----
2024-07-12 11:40 amSSE 1.9 3.9----30.17- 66.0 63.1----
2024-07-12 11:30 amSSE 1.9 3.9----30.17- 65.7 63.1----
2024-07-12 11:20 am SE 3.9 3.9 0.3-2.8-30.17- 65.1 63.1----
2024-07-12 11:10 am SE 3.9 3.9 0.3-2.8-30.17- 64.8 63.1----
2024-07-12 11:00 amESE 3.9 3.9----30.16+0.00 64.8 63.1----
2024-07-12 10:50 amESE 3.9 3.9 0.3-3.1-30.16- 64.8 63.1----
2024-07-12 10:40 amESE 1.9 3.9----30.16- 64.6 63.1----
2024-07-12 10:30 am E 1.9 1.9----30.16- 64.6 63.0----
2024-07-12 10:20 am E 1.9 3.9 0.3-2.8-30.16- 64.6 63.0----
2024-07-12 10:10 am E 3.9 3.9 0.3-2.8-30.16- 64.6 63.0----
2024-07-12 10:00 amENE 1.9 1.9----30.16+0.01 64.6 62.8----
2024-07-12 09:50 am- 0.0 0.0 0.3-2.9-30.16- 64.8 62.8----
2024-07-12 09:40 am- 0.0 1.9 0.3-2.9-30.16- 64.6 62.8----
2024-07-12 09:30 am E 1.9 1.9----30.16- 64.4 62.6----
2024-07-12 09:20 am E 1.9 3.9 0.3-2.5-30.16- 64.0 62.6----
2024-07-12 09:10 am- 0.0 1.9 0.3-2.5-30.16- 64.2 62.6----
2024-07-12 09:00 am- 0.0 0.0----30.16+0.03 64.2 62.6----
2024-07-12 08:50 am- 0.0 0.0 0.3-2.5-30.16- 64.6 62.4----
2024-07-12 08:40 amENE 1.9 1.9 0.3-2.5-30.17- 64.8 62.4----
2024-07-12 08:30 am E 1.9 3.9----30.16- 64.6 62.4----
2024-07-12 08:20 am E 3.9 3.9 0.3-2.6-30.16- 64.8 62.4----
2024-07-12 08:10 am E 3.9 3.9 0.3-2.6-30.16- 64.8 62.4----
2024-07-12 08:00 am E 3.9 5.8----30.16+0.04 64.8 62.4----
2024-07-12 07:50 am E 3.9 5.8 0.3-2.7-30.16- 64.0 62.4----
2024-07-12 07:40 am E 3.9 3.9----30.16- 64.2 62.4----
2024-07-12 07:30 am E 1.9 1.9----30.15- 64.2 62.4----
2024-07-12 07:20 am- 0.0 1.9 0.3-2.6-30.15- 63.9 62.4----
2024-07-12 07:10 am E 1.9 1.9 0.3-2.6-30.15- 63.7 62.2----
2024-07-12 07:00 amENE 1.9 1.9----30.14+0.03 63.9 62.4----
2024-07-12 06:50 am NE 1.9 1.9 0.3-2.8-30.14- 63.9 62.4----
2024-07-12 06:40 am N 1.9 1.9 0.3-2.8-30.14- 63.7 62.4----
2024-07-12 06:30 amNNE 1.9 1.9----30.14- 63.3 62.4----
2024-07-12 06:20 am N 1.9 1.9 0.3-2.6-30.14- 63.3 62.6----
2024-07-12 06:10 am N 1.9 3.9 0.3-2.6-30.14- 63.7 62.6----
2024-07-12 06:00 am- 0.0 0.0----30.14+0.02 63.7 62.6----
2024-07-12 05:50 am- 0.0 0.0 0.3-2.7-30.14- 63.7 62.6----
2024-07-12 05:40 am- 0.0 0.0----30.13- 63.7 62.6----
2024-07-12 05:30 am- 0.0 0.0----30.13- 63.7 62.8----
2024-07-12 05:20 am- 0.0 0.0 0.3-2.7-30.13- 63.7 62.8----
2024-07-12 05:10 am- 0.0 0.0 0.3-2.7-30.13- 63.7 62.8----
2024-07-12 05:00 am- 0.0 0.0----30.12+0.00 63.7 63.0----
2024-07-12 04:50 am- 0.0 0.0 0.3-2.7-30.13- 63.5 63.0----

Detailed Wave Summary
for 45008 as of (5:10 am EDT)
0910 GMT on 07/13/2024:

These wave data are displayed in rounded times.

     

Click on the graph icon in the table below to see a time series plot of the last five days of that observation.

5-day plot - Significant Wave Height Significant Wave Height (WVHT): 0.0 ft
5-day plot - Average Wave Period Average Wave Period (APD): 3.1 sec
Previous observations
TIME
(EDT)
5-day plot - Wave Height
WVHT
ft
5-day plot - Swell Height
SwH
ft
5-day plot - Swell Period
SwP
sec
5-day plot - Swell Direction
SwD
 
5-day plot - Wind Wave Height
WWH
ft
5-day plot - Wind Wave Period
WWP
sec
5-day plot - Wind Wave Direction
WWD
 
5-day plot - Wave Steepness
STEEPNESS
 
5-day plot - Average Wave Period
APD
sec
2024-07-13 04:40 am 0.0------ N/A 3.2
2024-07-13 04:10 am 0.0------ N/A 3.0
2024-07-13 03:40 am 0.0------ N/A 2.7
2024-07-13 03:10 am 0.3------ N/A 2.7
2024-07-13 02:40 am 0.0------ N/A 2.7
2024-07-13 02:10 am 0.0------ N/A 2.4
2024-07-13 01:40 am 0.0------ N/A 2.4
2024-07-13 01:10 am 0.0------ N/A 2.3
2024-07-13 12:40 am 0.3------ N/A 2.2
2024-07-13 12:10 am 0.3------ N/A 2.3
2024-07-12 11:40 pm 0.3------ N/A 2.3
2024-07-12 11:10 pm 0.3------ N/A 2.3
2024-07-12 10:40 pm 0.3------ N/A 2.4
2024-07-12 10:10 pm 0.0------ N/A 2.5
2024-07-12 09:40 pm 0.0------ N/A 2.6
2024-07-12 09:10 pm 0.0------ N/A 2.8
2024-07-12 08:40 pm 0.3------ N/A 2.8
2024-07-12 08:10 pm 0.0------ N/A 2.9
2024-07-12 07:40 pm 0.0------ N/A 2.9
2024-07-12 07:10 pm 0.3------ N/A 2.7
2024-07-12 06:40 pm 0.0------ N/A 2.9
2024-07-12 06:10 pm 0.3------ N/A 3.1
2024-07-12 05:40 pm 0.0------ N/A 3.0
2024-07-12 05:10 pm 0.3------ N/A 3.1
2024-07-12 04:40 pm 0.3------ N/A 3.0
2024-07-12 04:10 pm 0.3------ N/A 2.9
2024-07-12 03:40 pm 0.3------ N/A 3.2
2024-07-12 03:10 pm 0.3------ N/A 3.0
2024-07-12 02:40 pm 0.3------ N/A 2.9
2024-07-12 02:10 pm 0.3------ N/A 3.6
2024-07-12 01:40 pm 0.3------ N/A 3.1
2024-07-12 01:10 pm 0.3------ N/A 3.1
2024-07-12 12:40 pm 0.0------ N/A 3.3
2024-07-12 12:10 pm 0.0------ N/A 3.2
2024-07-12 11:40 am 0.3------ N/A 3.0
2024-07-12 11:10 am 0.3------ N/A 2.8
2024-07-12 10:40 am 0.3------ N/A 3.1
2024-07-12 10:10 am 0.3------ N/A 2.8
2024-07-12 09:40 am 0.3------ N/A 2.9
2024-07-12 09:10 am 0.3------ N/A 2.5
2024-07-12 08:40 am 0.3------ N/A 2.5
2024-07-12 08:10 am 0.3------ N/A 2.6
2024-07-12 07:40 am 0.3------ N/A 2.7
2024-07-12 07:10 am 0.3------ N/A 2.6
2024-07-12 06:40 am 0.3------ N/A 2.8
2024-07-12 06:10 am 0.3------ N/A 2.6
2024-07-12 05:40 am 0.3------ N/A 2.7
2024-07-12 05:10 am 0.3------ N/A 2.7

Plot of wave energy versus frequency (and period)